Date String (YYYY-MM-DD hh:mm:ss) UTC,Instrument flags,Ambient pressure (hPa),Sample flow (lpm),Bypass flow (lpm),Sample temperature (°C),Ambient temperature (°C),ASC tube jacket temperature (°C),LED temperature (°C),Box temperature (°C),Sample RH (%),Span deviation,Mass concentration (μg/m³),Mass concentration (μg/m³),Mass concentration (μg/m³)
DateTimeUTC,F1_M11,P_M11,Q1_M11,Q2_M11,T1_M11,T2_M11,T3_M11,T4_M11,T5_M11,U1_M11,ZSPAN_M11,X2_M11,X0_M11,X1_M11
2023-03-08 20:00:00,,0824.2,4.99,0.00,22.2,20.7,00.0,30.9,23.9,13.8,-002.3,0013.33,0019.44,0012.63
2023-03-08 20:01:00,,0824.2,4.99,0.00,22.2,20.6,00.0,30.9,23.8,13.9,-002.4,0013.30,0019.15,0012.62
2023-03-08 20:02:00,,0824.1,4.98,0.00,22.1,20.5,00.0,30.9,23.8,13.8,-002.2,0013.28,0018.34,0012.59
2023-03-08 20:03:00,,0824.1,5.00,0.00,22.1,20.4,00.0,30.9,23.8,13.9,-002.0,0013.23,0018.24,0012.54
2023-03-08 20:04:00,,0824.1,5.01,0.00,22.1,20.4,00.0,30.9,23.8,14.0,-002.0,0013.21,0018.28,0012.52
2023-03-08 20:05:00,,0824.1,5.00,0.00,22.1,20.5,00.0,30.9,23.8,14.0,-002.1,0013.24,0018.01,0012.53
2023-03-08 20:06:00,,0824.1,4.99,0.00,22.1,20.4,00.0,30.9,23.7,13.9,-002.1,0013.31,0017.88,0012.58
2023-03-08 20:07:00,,0824.1,4.98,0.00,22.0,20.3,00.0,30.9,23.6,14.0,-002.1,0013.41,0018.16,0012.64
2023-03-08 20:08:00,,0824.1,4.99,0.00,22.0,20.3,00.0,30.9,23.7,14.0,-002.4,0013.43,0017.94,0012.71
2023-03-08 20:09:00,,0824.1,4.99,0.00,22.0,20.3,00.0,30.8,23.7,13.9,-002.3,0013.50,0017.61,0012.79
2023-03-08 20:10:00,,0824.1,5.00,0.00,22.0,20.3,00.0,30.8,23.7,14.0,-002.3,0013.54,0017.56,0012.85
2023-03-08 20:11:00,,0824.0,4.99,0.00,22.0,21.2,00.0,30.8,23.9,13.9,-002.3,0013.57,0017.22,0012.87
2023-03-08 20:12:00,,0824.1,5.02,0.00,22.2,22.5,00.0,30.8,24.1,13.9,-002.2,0013.60,0017.68,0012.86
2023-03-08 20:13:00,,0824.0,4.99,0.00,22.3,22.6,00.0,30.9,24.2,13.7,-002.1,0013.60,0017.82,0012.88
2023-03-08 20:14:00,,0824.1,5.00,0.00,22.3,22.2,00.0,30.9,24.2,13.7,-002.1,0013.65,0018.05,0012.91
2023-03-08 20:15:00,,0824.1,5.00,0.00,22.3,21.8,00.0,30.9,24.1,13.7,-002.1,0013.70,0018.54,0012.92
2023-03-08 20:16:00,,0824.1,5.00,0.00,22.3,21.5,00.0,30.9,24.1,13.7,-002.0,0013.71,0019.36,0012.93
2023-03-08 20:17:00,,0824.0,5.00,0.00,22.3,21.3,00.0,30.9,24.0,13.7,-001.9,0013.70,0019.60,0012.94
2023-03-08 20:18:00,,0824.0,5.00,0.00,22.3,21.1,00.0,31.0,24.0,13.7,-001.8,0013.72,0019.62,0012.98
2023-03-08 20:19:00,,0823.9,5.00,0.00,22.3,21.1,00.0,31.0,24.0,13.7,-001.7,0013.73,0019.65,0013.02
2023-03-08 20:20:00,,0823.9,5.00,0.00,22.3,21.0,00.0,31.0,24.0,13.8,-001.6,0013.76,0019.85,0013.04
2023-03-08 20:21:00,,0823.9,5.00,0.00,22.3,20.8,00.0,31.0,24.0,13.7,-001.4,0013.82,0020.04,0013.07
2023-03-08 20:22:00,,0823.9,5.00,0.00,22.2,20.7,00.0,31.0,23.9,13.6,-001.4,0013.86,0020.11,0013.11
2023-03-08 20:23:00,,0823.9,4.99,0.00,22.2,20.6,00.0,31.0,23.9,13.7,-001.6,0013.91,0019.67,0013.16
2023-03-08 20:24:00,,0823.9,5.01,0.00,22.2,20.5,00.0,31.0,23.9,13.6,-001.4,0013.96,0019.57,0013.23
2023-03-08 20:25:00,,0823.8,5.01,0.00,22.2,20.5,00.0,30.9,23.8,13.7,-001.3,0014.01,0019.59,0013.31
2023-03-08 20:26:00,,0823.8,4.99,0.00,22.1,20.4,00.0,30.9,23.8,13.7,-001.2,0014.07,0020.10,0013.37
2023-03-08 20:27:00,,0823.8,5.00,0.00,22.1,20.4,00.0,30.9,23.8,13.8,-001.1,0014.08,0019.49,0013.41
2023-03-08 20:28:00,,0823.8,4.99,0.00,22.1,20.5,00.0,30.9,23.8,13.9,-001.2,0014.11,0019.32,0013.45
2023-03-08 20:29:00,,0823.8,5.01,0.00,22.1,20.5,00.0,30.9,23.8,14.0,-001.4,0014.08,0019.18,0013.44
2023-03-08 20:30:00,,0823.9,5.00,0.00,22.1,20.4,00.0,30.9,23.8,13.9,-001.4,0014.09,0019.19,0013.42
2023-03-08 20:31:00,,0823.9,4.99,0.00,22.1,20.4,00.0,30.9,23.8,13.9,-001.6,0014.09,0019.07,0013.43
2023-03-08 20:32:00,,0824.0,4.98,0.00,22.1,20.4,00.0,30.9,23.7,13.9,-001.6,0014.04,0019.01,0013.43
2023-03-08 20:33:00,,0824.0,4.98,0.00,22.1,20.4,00.0,30.9,23.8,13.9,-001.6,0014.04,0019.32,0013.43
2023-03-08 20:34:00,,0824.0,5.00,0.00,22.0,20.4,00.0,30.9,23.7,13.9,-001.5,0014.05,0019.41,0013.42
2023-03-08 20:35:00,,0824.0,4.99,0.00,22.0,20.4,00.0,30.8,23.7,13.8,-001.4,0014.02,0019.38,0013.38
2023-03-08 20:36:00,,0824.0,5.00,0.00,22.1,21.2,00.0,30.8,23.9,13.7,-001.4,0013.97,0019.16,0013.34
2023-03-08 20:37:00,,0823.9,5.00,0.00,22.2,22.4,00.0,30.8,24.2,13.6,-001.6,0013.94,0018.35,0013.28
2023-03-08 20:38:00,,0823.9,5.00,0.00,22.3,22.7,00.0,30.9,24.3,13.5,-001.7,0013.96,0018.17,0013.26
2023-03-08 20:39:00,,0824.0,5.01,0.00,22.3,22.3,00.0,30.9,24.2,13.5,-001.4,0013.95,0018.72,0013.23
2023-03-08 20:40:00,,0823.9,4.99,0.00,22.3,21.9,00.0,30.9,24.1,13.4,-001.5,0013.98,0018.98,0013.25
2023-03-08 20:41:00,,0823.8,5.00,0.00,22.3,21.5,00.0,31.0,24.1,13.3,-001.5,0013.94,0019.02,0013.24
2023-03-08 20:42:00,,0823.7,5.01,0.00,22.3,21.3,00.0,31.0,24.1,13.4,-001.4,0013.90,0019.15,0013.21
2023-03-08 20:43:00,,0823.7,4.99,0.00,22.3,21.2,00.0,31.0,24.0,13.4,-001.5,0013.90,0019.14,0013.20
2023-03-08 20:44:00,,0823.7,5.00,0.00,22.3,21.1,00.0,31.0,24.0,13.4,-001.5,0013.90,0018.84,0013.20
2023-03-08 20:45:00,,0823.7,5.01,0.00,22.3,21.0,00.0,31.0,24.0,13.5,-001.5,0013.89,0018.77,0013.22
2023-03-08 20:46:00,,0823.7,5.00,0.00,22.3,20.9,00.0,31.0,24.0,13.5,-001.8,0013.91,0018.74,0013.25
2023-03-08 20:47:00,,0823.7,5.00,0.00,22.3,20.9,00.0,31.0,24.0,13.5,-001.9,0013.92,0018.79,0013.28
2023-03-08 20:48:00,,0823.6,5.00,0.00,22.3,20.8,00.0,31.0,24.0,13.5,-001.8,0013.95,0018.74,0013.32
2023-03-08 20:49:00,,0823.6,5.01,0.00,22.3,20.7,00.0,31.0,24.0,13.5,-001.7,0013.96,0018.76,0013.34
2023-03-08 20:50:00,,0823.6,4.99,0.00,22.3,20.7,00.0,31.0,24.0,13.5,-002.0,0013.98,0018.29,0013.36
2023-03-08 20:51:00,,0823.7,5.01,0.00,22.3,20.7,00.0,31.0,24.0,13.5,-002.1,0013.97,0018.05,0013.37
2023-03-08 20:52:00,,0823.7,4.99,0.00,22.3,20.7,00.0,31.0,24.0,13.6,-002.2,0013.98,0018.09,0013.39
2023-03-08 20:53:00,,0823.7,5.03,0.00,22.3,20.7,00.0,31.0,24.0,13.6,-002.3,0013.99,0017.93,0013.40
2023-03-08 20:54:00,,0823.7,5.01,0.00,22.2,20.7,00.0,31.0,24.0,13.5,-002.5,0014.02,0017.86,0013.42
2023-03-08 20:55:00,,0823.7,5.00,0.00,22.2,20.7,00.0,31.0,24.0,13.6,-002.5,0014.05,0017.95,0013.44
2023-03-08 20:56:00,,0823.6,4.99,0.00,22.2,20.7,00.0,31.0,24.0,13.6,-002.5,0014.06,0018.01,0013.46
2023-03-08 20:57:00,,0823.6,5.00,0.00,22.2,20.7,00.0,31.0,24.0,13.7,-002.4,0014.05,0018.13,0013.43
2023-03-08 20:58:00,,0823.6,4.99,0.00,22.2,20.7,00.0,31.0,24.0,13.7,-002.4,0014.05,0018.46,0013.41
2023-03-08 20:59:00,,0823.6,5.01,0.00,22.2,20.6,00.0,31.0,24.0,13.5,-002.3,0014.00,0018.25,0013.39
